NOZ409 ENCN-ENAL

Flight info

Callsign NOZ409
Flight time 0h 57m
Altitude 36000
Route BEDIK DCT TUMIM
Aircraft B738/M-SDE2E3FGHIRWXY/LB1

Departure

Time 2026-04-26 22:47
Airport Kristiansand Airport (ENCN)

Arrival

Time 2026-04-26 23:44
Airport Ålesund Airport (ENAL)
Time Latitude Longitude Altitude Speed Heading
2026-04-26 22:34 58.20277 8.07597 52 ft 0 kts 302°
2026-04-26 22:41 58.20273 8.07609 53 ft 3 kts 298°
2026-04-26 22:41 58.20267 8.07643 53 ft 3 kts 274°
2026-04-26 22:42 58.20267 8.07669 53 ft 3 kts 250°
2026-04-26 22:42 58.20277 8.07700 53 ft 3 kts 223°
2026-04-26 22:42 58.20286 8.07715 53 ft 0 kts 216°
2026-04-26 22:42 58.20287 8.07716 53 ft 0 kts 216°
2026-04-26 22:44 58.20286 8.07716 53 ft 0 kts 216°
2026-04-26 22:45 58.20239 8.07657 53 ft 19 kts 212°
2026-04-26 22:45 58.20073 8.07463 53 ft 34 kts 211°
2026-04-26 22:45 58.19875 8.07395 53 ft 30 kts 161°
2026-04-26 22:45 58.19712 8.07532 53 ft 17 kts 113°
2026-04-26 22:46 58.19736 8.07627 53 ft 1 kts 33°
2026-04-26 22:46 58.19742 8.07635 53 ft 1 kts 33°
2026-04-26 22:46 58.19831 8.07751 53 ft 49 kts 34°
2026-04-26 22:46 58.20345 8.08433 53 ft 129 kts 35°
2026-04-26 22:47 58.21239 8.09614 337 ft 170 kts 35°
2026-04-26 22:47 58.22234 8.10885 1336 ft 170 kts 33°
2026-04-26 22:47 58.23200 8.12071 2528 ft 157 kts 35°
2026-04-26 22:47 58.24082 8.13277 3342 ft 160 kts 36°
2026-04-26 22:48 58.25078 8.14337 3954 ft 169 kts 14°
2026-04-26 22:48 58.26233 8.14131 4671 ft 169 kts 338°
2026-04-26 22:48 58.27198 8.12876 5457 ft 170 kts 321°
2026-04-26 22:48 58.28006 8.11197 6158 ft 174 kts 313°
2026-04-26 22:49 58.28834 8.09363 6622 ft 193 kts 312°
2026-04-26 22:49 58.29751 8.07304 6939 ft 215 kts 311°
2026-04-26 22:49 58.30771 8.05009 7278 ft 238 kts 311°
2026-04-26 22:49 58.31881 8.02510 7824 ft 255 kts 311°
2026-04-26 22:50 58.32614 8.00858 8297 ft 260 kts 311°
2026-04-26 22:50 58.33751 7.98297 9151 ft 263 kts 311°
2026-04-26 22:50 58.34809 7.95907 9996 ft 263 kts 311°
2026-04-26 22:50 58.35905 7.93429 10807 ft 265 kts 310°
2026-04-26 22:51 58.37109 7.90700 11460 ft 277 kts 310°
2026-04-26 22:51 58.38396 7.87785 11855 ft 296 kts 310°
2026-04-26 22:51 58.39754 7.84689 12296 ft 312 kts 310°
2026-04-26 22:51 58.41171 7.81479 12970 ft 319 kts 310°
2026-04-26 22:52 58.42609 7.78212 13721 ft 324 kts 310°
2026-04-26 22:52 58.44059 7.74910 14518 ft 326 kts 310°
2026-04-26 22:52 58.45534 7.71596 15270 ft 329 kts 311°
2026-04-26 22:52 58.47060 7.68296 15985 ft 333 kts 311°
2026-04-26 22:53 58.48583 7.64930 16707 ft 336 kts 310°
2026-04-26 22:53 58.50106 7.61499 17404 ft 340 kts 310°
2026-04-26 22:53 58.51632 7.58026 18098 ft 343 kts 310°
2026-04-26 22:53 58.53165 7.54512 18753 ft 346 kts 310°
2026-04-26 22:54 58.54693 7.50998 19400 ft 349 kts 310°
2026-04-26 22:54 58.56252 7.47403 20048 ft 352 kts 309°
2026-04-26 22:54 58.57822 7.43776 20649 ft 355 kts 309°
2026-04-26 22:54 58.59404 7.40116 21265 ft 358 kts 309°
2026-04-26 22:55 58.61001 7.36421 21826 ft 362 kts 309°
2026-04-26 22:55 58.62615 7.32682 22377 ft 365 kts 309°
2026-04-26 22:55 58.64302 7.29026 22942 ft 368 kts 316°
2026-04-26 22:55 58.66405 7.26164 23453 ft 374 kts 330°
2026-04-26 22:56 58.68854 7.24343 23951 ft 381 kts 341°
2026-04-26 22:56 58.71449 7.23088 24429 ft 386 kts 343°
2026-04-26 22:56 58.74088 7.22000 24902 ft 390 kts 345°
2026-04-26 22:56 58.76756 7.20946 25367 ft 393 kts 345°
2026-04-26 22:57 58.79441 7.19881 25822 ft 396 kts 345°
2026-04-26 22:57 58.82144 7.18806 26254 ft 399 kts 345°
2026-04-26 22:57 58.84874 7.17717 26686 ft 401 kts 345°
2026-04-26 22:57 58.87611 7.16622 27092 ft 404 kts 345°
2026-04-26 22:58 58.90374 7.15514 27506 ft 406 kts 345°
2026-04-26 22:58 58.93154 7.14397 27886 ft 409 kts 345°
2026-04-26 22:58 58.95960 7.13268 28275 ft 411 kts 345°
2026-04-26 22:58 58.98771 7.12134 28639 ft 414 kts 345°
2026-04-26 22:59 59.01601 7.11015 29019 ft 416 kts 345°
2026-04-26 22:59 59.04447 7.09887 29370 ft 418 kts 345°
2026-04-26 22:59 59.07295 7.08752 29698 ft 420 kts 345°
2026-04-26 22:59 59.10172 7.07599 30072 ft 421 kts 345°
2026-04-26 23:00 59.12997 7.06462 30538 ft 419 kts 345°
2026-04-26 23:00 59.15850 7.05311 30977 ft 418 kts 345°
2026-04-26 23:00 59.18695 7.04160 31376 ft 418 kts 345°
2026-04-26 23:00 59.21548 7.03002 31783 ft 417 kts 345°
2026-04-26 23:01 59.24387 7.01848 32192 ft 416 kts 345°
2026-04-26 23:01 59.27221 7.00693 32603 ft 415 kts 345°
2026-04-26 23:01 59.30042 6.99542 32975 ft 415 kts 345°
2026-04-26 23:01 59.32873 6.98385 33328 ft 415 kts 345°
2026-04-26 23:02 59.35699 6.97227 33705 ft 414 kts 345°
2026-04-26 23:02 59.38513 6.96072 34076 ft 413 kts 345°
2026-04-26 23:02 59.41321 6.94918 34406 ft 413 kts 345°
2026-04-26 23:02 59.44131 6.93761 34732 ft 413 kts 345°
2026-04-26 23:03 59.46946 6.92600 35052 ft 413 kts 345°
2026-04-26 23:03 59.49755 6.91439 35369 ft 412 kts 345°
2026-04-26 23:03 59.52561 6.90278 35686 ft 412 kts 345°
2026-04-26 23:03 59.55369 6.89113 35975 ft 412 kts 345°
2026-04-26 23:04 59.58143 6.87962 36267 ft 412 kts 345°
2026-04-26 23:04 59.63802 6.85605 36329 ft 417 kts 345°
2026-04-26 23:05 59.69465 6.83239 36328 ft 413 kts 345°
2026-04-26 23:05 59.75085 6.80883 36330 ft 413 kts 345°
2026-04-26 23:06 59.80706 6.78518 36330 ft 413 kts 345°
2026-04-26 23:06 59.85385 6.76543 36330 ft 413 kts 345°
2026-04-26 23:07 59.91011 6.74161 36330 ft 413 kts 345°
2026-04-26 23:07 59.96635 6.71772 36330 ft 413 kts 345°
2026-04-26 23:08 60.02261 6.69373 36330 ft 414 kts 345°
2026-04-26 23:08 60.07894 6.66963 36329 ft 414 kts 345°
2026-04-26 23:09 60.13531 6.64543 36329 ft 414 kts 345°
2026-04-26 23:09 60.19162 6.62118 36330 ft 414 kts 345°
2026-04-26 23:10 60.24791 6.59684 36329 ft 414 kts 345°
2026-04-26 23:10 60.30417 6.57244 36327 ft 414 kts 345°
2026-04-26 23:11 60.36047 6.54792 36323 ft 414 kts 345°
2026-04-26 23:11 60.41629 6.52353 36319 ft 403 kts 345°
2026-04-26 23:11 60.44323 6.51172 36314 ft 389 kts 344°
2026-04-26 23:12 60.46939 6.50025 36313 ft 380 kts 344°
2026-04-26 23:12 60.52032 6.47785 36317 ft 373 kts 344°
2026-04-26 23:13 60.57121 6.45540 36318 ft 375 kts 344°
2026-04-26 23:13 60.62221 6.43282 36316 ft 374 kts 344°
2026-04-26 23:14 60.67311 6.41021 36308 ft 375 kts 344°
2026-04-26 23:14 60.69867 6.39883 35834 ft 378 kts 344°
2026-04-26 23:14 60.72476 6.38719 34880 ft 390 kts 345°
2026-04-26 23:14 60.75114 6.37541 34217 ft 394 kts 345°
2026-04-26 23:15 60.77823 6.36329 33784 ft 392 kts 345°
2026-04-26 23:15 60.80471 6.35142 33404 ft 388 kts 345°
2026-04-26 23:15 60.83035 6.33991 33004 ft 385 kts 345°
2026-04-26 23:15 60.85675 6.32804 32599 ft 383 kts 345°
2026-04-26 23:16 60.88266 6.31636 32191 ft 380 kts 345°
2026-04-26 23:16 60.90843 6.30474 31790 ft 378 kts 345°
2026-04-26 23:16 60.93407 6.29315 31399 ft 375 kts 345°
2026-04-26 23:16 60.95946 6.28165 31013 ft 373 kts 345°
2026-04-26 23:17 60.98470 6.27021 30638 ft 370 kts 344°
2026-04-26 23:17 61.00981 6.25880 30238 ft 368 kts 344°
2026-04-26 23:17 61.03474 6.24746 29882 ft 366 kts 344°
2026-04-26 23:17 61.05950 6.23618 29503 ft 363 kts 344°
2026-04-26 23:18 61.08411 6.22494 29119 ft 361 kts 344°
2026-04-26 23:18 61.10858 6.21376 28715 ft 359 kts 344°
2026-04-26 23:18 61.13292 6.20262 28342 ft 357 kts 345°
2026-04-26 23:18 61.15707 6.19154 27982 ft 354 kts 344°
2026-04-26 23:19 61.18097 6.18057 27601 ft 352 kts 344°
2026-04-26 23:19 61.20487 6.16957 27200 ft 350 kts 345°
2026-04-26 23:19 61.22857 6.15866 26830 ft 348 kts 345°
2026-04-26 23:19 61.25212 6.14779 26481 ft 345 kts 344°
2026-04-26 23:20 61.27546 6.13701 26097 ft 343 kts 344°
2026-04-26 23:20 61.29873 6.12623 25708 ft 341 kts 345°
2026-04-26 23:20 61.32185 6.11552 25339 ft 339 kts 345°
2026-04-26 23:20 61.34485 6.10484 24968 ft 337 kts 345°
2026-04-26 23:21 61.36737 6.09438 24623 ft 335 kts 344°
2026-04-26 23:21 61.38997 6.08385 24266 ft 332 kts 345°
2026-04-26 23:21 61.41250 6.07342 23889 ft 331 kts 345°
2026-04-26 23:21 61.43517 6.06305 23523 ft 328 kts 345°
2026-04-26 23:22 61.45744 6.05273 23172 ft 326 kts 345°
2026-04-26 23:22 61.47922 6.04256 22803 ft 325 kts 345°
2026-04-26 23:22 61.50119 6.03224 22447 ft 322 kts 345°
2026-04-26 23:22 61.52300 6.02197 22120 ft 320 kts 344°
2026-04-26 23:23 61.54464 6.01174 21771 ft 317 kts 345°
2026-04-26 23:23 61.56612 6.00157 21419 ft 316 kts 344°
2026-04-26 23:23 61.58748 5.99145 21046 ft 315 kts 344°
2026-04-26 23:23 61.60878 5.98134 20703 ft 312 kts 345°
2026-04-26 23:24 61.62989 5.97130 20363 ft 311 kts 345°
2026-04-26 23:24 61.65099 5.96126 20026 ft 308 kts 345°
2026-04-26 23:24 61.67186 5.95133 19699 ft 306 kts 344°
2026-04-26 23:24 61.69257 5.94148 19368 ft 304 kts 344°
2026-04-26 23:25 61.71316 5.93167 19029 ft 302 kts 344°
2026-04-26 23:25 61.73378 5.92345 18714 ft 301 kts 349°
2026-04-26 23:25 61.75446 5.91843 18375 ft 295 kts 351°
2026-04-26 23:25 61.77345 5.91514 17760 ft 291 kts 352°
2026-04-26 23:26 61.79372 5.91188 16948 ft 293 kts 352°
2026-04-26 23:26 61.81397 5.90833 16222 ft 291 kts 352°
2026-04-26 23:26 61.83399 5.90462 15533 ft 288 kts 352°
2026-04-26 23:26 61.85361 5.90089 14841 ft 285 kts 352°
2026-04-26 23:27 61.87355 5.89703 14138 ft 283 kts 352°
2026-04-26 23:27 61.89307 5.89321 13443 ft 281 kts 352°
2026-04-26 23:27 61.91245 5.88941 12764 ft 278 kts 352°
2026-04-26 23:27 61.93151 5.88566 12267 ft 270 kts 352°
2026-04-26 23:28 61.94991 5.88200 11968 ft 263 kts 352°
2026-04-26 23:28 61.96813 5.87841 11676 ft 262 kts 353°
2026-04-26 23:28 61.98605 5.87487 11305 ft 264 kts 353°
2026-04-26 23:28 62.00472 5.87113 10768 ft 273 kts 353°
2026-04-26 23:29 62.02373 5.86743 10375 ft 275 kts 353°
2026-04-26 23:29 62.04276 5.86373 10081 ft 273 kts 354°
2026-04-26 23:29 62.06133 5.86008 9989 ft 263 kts 354°
2026-04-26 23:29 62.07939 5.85652 9778 ft 259 kts 354°
2026-04-26 23:30 62.09725 5.85298 9493 ft 257 kts 354°
2026-04-26 23:30 62.11506 5.84945 9204 ft 256 kts 354°
2026-04-26 23:30 62.13281 5.84592 8912 ft 256 kts 354°
2026-04-26 23:30 62.15046 5.84241 8622 ft 255 kts 354°
2026-04-26 23:31 62.16809 5.83891 8329 ft 254 kts 354°
2026-04-26 23:31 62.18568 5.83541 8040 ft 253 kts 354°
2026-04-26 23:31 62.20318 5.83218 7748 ft 252 kts 355°
2026-04-26 23:31 62.21174 5.83052 7606 ft 252 kts 354°
2026-04-26 23:34 62.22609 5.82757 7367 ft 251 kts 354°
2026-04-26 23:35 62.24343 5.82404 7076 ft 250 kts 355°
2026-04-26 23:35 62.26075 5.82052 6781 ft 249 kts 355°
2026-04-26 23:35 62.27797 5.81705 6488 ft 248 kts 355°
2026-04-26 23:35 62.29492 5.81364 6198 ft 247 kts 355°
2026-04-26 23:36 62.31201 5.81020 5905 ft 246 kts 355°
2026-04-26 23:36 62.32907 5.80677 5615 ft 245 kts 355°
2026-04-26 23:36 62.34604 5.80335 5325 ft 244 kts 355°
2026-04-26 23:36 62.36278 5.79811 5054 ft 243 kts 346°
2026-04-26 23:37 62.37882 5.78551 4764 ft 247 kts 336°
2026-04-26 23:37 62.39423 5.76942 4450 ft 241 kts 333°
2026-04-26 23:37 62.40858 5.75366 4297 ft 220 kts 334°
2026-04-26 23:37 62.42176 5.73960 4144 ft 202 kts 335°
2026-04-26 23:38 62.43415 5.72661 3809 ft 198 kts 335°
2026-04-26 23:38 62.44647 5.71372 3450 ft 191 kts 335°
2026-04-26 23:38 62.45847 5.70549 3292 ft 177 kts 360°
2026-04-26 23:38 62.46950 5.71490 3234 ft 171 kts 37°
2026-04-26 23:39 62.47724 5.73385 3190 ft 168 kts 53°
2026-04-26 23:39 62.48313 5.75574 3143 ft 169 kts 60°
2026-04-26 23:39 62.48837 5.77872 3096 ft 171 kts 63°
2026-04-26 23:39 62.49340 5.80194 3049 ft 170 kts 63°
2026-04-26 23:40 62.49824 5.82427 3012 ft 156 kts 63°
2026-04-26 23:40 62.50265 5.84467 2899 ft 149 kts 63°
2026-04-26 23:40 62.50702 5.86486 2705 ft 148 kts 63°
2026-04-26 23:40 62.51141 5.88513 2482 ft 148 kts 64°
2026-04-26 23:41 62.51570 5.90493 2288 ft 142 kts 64°
2026-04-26 23:41 62.51982 5.92390 2060 ft 138 kts 64°
2026-04-26 23:41 62.52391 5.94275 1844 ft 139 kts 64°
2026-04-26 23:41 62.52803 5.96173 1632 ft 139 kts 64°
2026-04-26 23:42 62.53213 5.98059 1421 ft 138 kts 65°
2026-04-26 23:42 62.54032 6.01825 1001 ft 138 kts 66°
2026-04-26 23:42 62.54440 6.03699 792 ft 137 kts 66°
2026-04-26 23:43 62.54605 6.04453 707 ft 137 kts 66°
2026-04-26 23:43 62.55012 6.06317 497 ft 137 kts 65°
2026-04-26 23:43 62.55416 6.08159 238 ft 132 kts 64°
2026-04-26 23:43 62.55798 6.09891 51 ft 118 kts 65°
2026-04-26 23:44 62.56112 6.11318 45 ft 81 kts 65°
2026-04-26 23:44 62.56256 6.11973 44 ft 17 kts 63°